Weather in San Juan del Sur

Nicaragua     11°15′14″N   85°52′10″W
temp.,
°C
wind,
m/s
gust,
m/s
humid.,
%
clouds,
%
prec.,
mm/h
press.,
hPa
HPBL,
m
31 july, sat
sat3100:00+26ene6118274 0.2 1012686
03:00+26ne7138178 0.5 1010828
06:00+26ne71284100 0.6 1011858
09:00+28ene7117698 0.8 10121025
12:00+29ene71068100 1.1 10111085
15:00+30ene7107086 0.0 10101051
18:00+27ene71078100 0.4 1011833
21:00+27ene71179100 0.8 1012847
1 august, sun
sun100:00+26ene71282100 1.9 1012779
03:00+26ene71280100 1.6 1011815
06:00+26ene7128263 2.9 1012878
09:00+28ene9137432 0.9 10131243
12:00+30ene8126590 0.9 10121329
15:00+30e7116532 0.0 10111249
18:00+28e51171100 0.0 1011625
21:00+27e6117654 0.1 1013776
2 august, mon
mon200:00+26e5108329 0.2 1013609
03:00+25ene5108399 0.4 1011625
06:00+25ene6108755 0.8 1012652
09:00+26ene7108690 1.2 1014858
12:00+29ene7107080 1.6 10121143
15:00+30ene71168100 0.0 10101184
18:00+27e6117997 0.4 1011760
21:00+26ene61084100 1.0 1013620
3 august, tue
tue300:00+25ene51087100 2.8 1012567
03:00+25ene5987100 0.8 1011554
06:00+25ene5889100 1.6 1011507
09:00+27ene5783100 2.1 1013761
12:00+29ene4569100 3.0 1012961
15:00+28ene227697 4.4 1010434
18:00+24ne1296100 15.6 101181
21:00+23ssw2297100 5.4 1013112
4 august, wed
wed400:00+23ssw1297100 12.1 101285
03:00+23s3996100 8.0 1012437
06:00+22ssw3894100 15.1 1013325
09:00+24ssw2389100 0.2 1014275
12:00+27ene3271100 0.2 1014892
15:00+26ene337989 0.9 1012405
18:00+24ene3690100 2.6 1013211
21:00+24ene598998 0.5 1015421